Time,TemperatureF,DewpointF,PressureIn,WindDirection,WindDirectionDegrees,WindSpeedMPH,WindSpeedGustMPH,Humidity,HourlyPrecipIn,Conditions,Clouds,dailyrainin,SoftwareType,DateUTC
2013-01-10 00:02:00,79.0,-99.9,30.17,East,90,26.0,29.0,-999,-99.99,,,-99.99,,2013-01-10 04:02:00,
2013-01-10 00:12:00,80.0,-99.9,30.17,East,88,22.0,27.0,-999,-99.99,,,-99.99,,2013-01-10 04:12:00,
2013-01-10 00:22:00,79.0,-99.9,30.16,East,101,21.0,29.0,-999,-99.99,,,-99.99,,2013-01-10 04:22:00,
2013-01-10 00:32:00,79.0,-99.9,30.16,East,99,23.0,28.0,-999,-99.99,,,-99.99,,2013-01-10 04:32:00,
2013-01-10 00:43:00,79.0,-99.9,30.16,East,91,21.0,25.0,-999,-99.99,,,-99.99,,2013-01-10 04:43:00,
2013-01-10 00:53:00,79.0,-99.9,30.15,East,94,18.0,26.0,-999,-99.99,,,-99.99,,2013-01-10 04:53:00,
2013-01-10 01:03:00,79.0,-99.9,30.15,East,95,19.0,28.0,-999,-99.99,,,-99.99,,2013-01-10 05:03:00,
2013-01-10 01:12:00,79.0,-99.9,30.15,East,89,23.0,28.0,-999,-99.99,,,-99.99,,2013-01-10 05:12:00,
2013-01-10 01:23:00,79.0,-99.9,30.15,East,90,22.0,29.0,-999,-99.99,,,-99.99,,2013-01-10 05:23:00,
2013-01-10 01:33:00,79.0,-99.9,30.14,East,85,22.0,26.0,-999,-99.99,,,-99.99,,2013-01-10 05:33:00,
2013-01-10 01:43:00,79.0,-99.9,30.14,East,92,21.0,26.0,-999,-99.99,,,-99.99,,2013-01-10 05:43:00,
2013-01-10 01:53:00,79.0,-99.9,30.14,East,91,22.0,25.0,-999,-99.99,,,-99.99,,2013-01-10 05:53:00,
2013-01-10 02:03:00,79.0,-99.9,30.14,East,90,18.0,22.0,-999,-99.99,,,-99.99,,2013-01-10 06:03:00,
2013-01-10 02:12:00,79.0,-99.9,30.14,East,90,21.0,26.0,-999,-99.99,,,-99.99,,2013-01-10 06:12:00,
2013-01-10 02:22:00,79.0,-99.9,30.13,East,88,20.0,24.0,-999,-99.99,,,-99.99,,2013-01-10 06:22:00,
2013-01-10 02:32:00,79.0,-99.9,30.13,East,85,18.0,24.0,-999,-99.99,,,-99.99,,2013-01-10 06:32:00,
2013-01-10 02:42:00,79.0,-99.9,30.13,East,88,17.0,23.0,-999,-99.99,,,-99.99,,2013-01-10 06:42:00,
2013-01-10 02:52:00,79.0,-99.9,30.13,East,87,16.0,21.0,-999,-99.99,,,-99.99,,2013-01-10 06:52:00,
2013-01-10 03:02:00,79.0,-99.9,30.13,East,79,13.0,20.0,-999,-99.99,,,-99.99,,2013-01-10 07:02:00,
2013-01-10 03:12:00,79.0,-99.9,30.12,East,87,16.0,21.0,-999,-99.99,,,-99.99,,2013-01-10 07:12:00,
2013-01-10 03:22:00,79.0,-99.9,30.12,East,89,17.0,21.0,-999,-99.99,,,-99.99,,2013-01-10 07:22:00,
2013-01-10 03:32:00,79.0,-99.9,30.11,East,79,15.0,21.0,-999,-99.99,,,-99.99,,2013-01-10 07:32:00,
2013-01-10 03:42:00,79.0,-99.9,30.11,ENE,75,16.0,24.0,-999,-99.99,,,-99.99,,2013-01-10 07:42:00,
2013-01-10 03:52:00,79.0,-99.9,30.11,ENE,78,16.0,20.0,-999,-99.99,,,-99.99,,2013-01-10 07:52:00,
2013-01-10 04:02:00,79.0,-99.9,30.11,ENE,72,19.0,24.0,-999,-99.99,,,-99.99,,2013-01-10 08:02:00,
2013-01-10 04:12:00,79.0,-99.9,30.10,ENE,69,17.0,25.0,-999,-99.99,,,-99.99,,2013-01-10 08:12:00,
2013-01-10 04:22:00,78.0,-99.9,30.10,East,81,23.0,26.0,-999,-99.99,,,-99.99,,2013-01-10 08:22:00,
2013-01-10 04:33:00,79.0,-99.9,30.10,ENE,78,19.0,24.0,-999,-99.99,,,-99.99,,2013-01-10 08:33:00,
2013-01-10 04:42:00,79.0,-99.9,30.10,East,80,21.0,26.0,-999,-99.99,,,-99.99,,2013-01-10 08:42:00,
2013-01-10 04:53:00,79.0,-99.9,30.10,East,85,18.0,23.0,-999,-99.99,,,-99.99,,2013-01-10 08:53:00,
2013-01-10 05:02:00,79.0,-99.9,30.10,East,91,20.0,26.0,-999,-99.99,,,-99.99,,2013-01-10 09:02:00,
2013-01-10 05:12:00,79.0,-99.9,30.10,East,82,21.0,26.0,-999,-99.99,,,-99.99,,2013-01-10 09:12:00,
2013-01-10 05:22:00,78.0,-99.9,30.11,ENE,66,18.0,26.0,-999,-99.99,,,-99.99,,2013-01-10 09:22:00,
2013-01-10 05:32:00,78.0,-99.9,30.11,ENE,74,20.0,26.0,-999,-99.99,,,-99.99,,2013-01-10 09:32:00,
2013-01-10 05:43:00,77.0,-99.9,30.12,ENE,69,13.0,22.0,-999,-99.99,,,-99.99,,2013-01-10 09:43:00,
2013-01-10 05:53:00,77.0,-99.9,30.11,ENE,68,14.0,18.0,-999,-99.99,,,-99.99,,2013-01-10 09:53:00,
2013-01-10 06:03:00,78.0,-99.9,30.11,ENE,78,12.0,18.0,-999,-99.99,,,-99.99,,2013-01-10 10:03:00,
2013-01-10 06:12:00,77.0,-99.9,30.11,ENE,74,14.0,18.0,-999,-99.99,,,-99.99,,2013-01-10 10:12:00,
2013-01-10 06:22:00,77.0,-99.9,30.11,East,85,14.0,18.0,-999,-99.99,,,-99.99,,2013-01-10 10:22:00,
2013-01-10 06:33:00,78.0,-99.9,30.11,East,87,19.0,24.0,-999,-99.99,,,-99.99,,2013-01-10 10:33:00,
2013-01-10 06:43:00,79.0,-99.9,30.11,East,83,19.0,29.0,-999,-99.99,,,-99.99,,2013-01-10 10:43:00,
2013-01-10 06:53:00,79.0,-99.9,30.12,East,85,21.0,25.0,-999,-99.99,,,-99.99,,2013-01-10 10:53:00,
2013-01-10 07:03:00,79.0,-99.9,30.12,East,86,18.0,24.0,-999,-99.99,,,-99.99,,2013-01-10 11:03:00,
2013-01-10 07:12:00,79.0,-99.9,30.13,East,86,17.0,23.0,-999,-99.99,,,-99.99,,2013-01-10 11:12:00,
2013-01-10 07:23:00,79.0,-99.9,30.13,East,82,17.0,26.0,-999,-99.99,,,-99.99,,2013-01-10 11:23:00,
2013-01-10 07:33:00,79.0,-99.9,30.13,East,86,15.0,21.0,-999,-99.99,,,-99.99,,2013-01-10 11:33:00,
2013-01-10 07:43:00,80.0,-99.9,30.14,East,88,17.0,25.0,-999,-99.99,,,-99.99,,2013-01-10 11:43:00,
2013-01-10 07:53:00,79.0,-99.9,30.14,ENE,78,20.0,27.0,-999,-99.99,,,-99.99,,2013-01-10 11:53:00,
2013-01-10 08:03:00,79.0,-99.9,30.14,East,81,18.0,31.0,-999,-99.99,,,-99.99,,2013-01-10 12:03:00,
2013-01-10 08:12:00,79.0,-99.9,30.14,ENE,76,19.0,27.0,-999,-99.99,,,-99.99,,2013-01-10 12:12:00,
2013-01-10 08:22:00,79.0,-99.9,30.15,ENE,74,23.0,30.0,-999,-99.99,,,-99.99,,2013-01-10 12:22:00,
2013-01-10 08:33:00,79.0,-99.9,30.16,ENE,71,20.0,31.0,-999,-99.99,,,-99.99,,2013-01-10 12:33:00,
2013-01-10 08:43:00,79.0,-99.9,30.16,ENE,73,23.0,27.0,-999,-99.99,,,-99.99,,2013-01-10 12:43:00,
2013-01-10 08:53:00,79.0,-99.9,30.16,East,81,17.0,28.0,-999,-99.99,,,-99.99,,2013-01-10 12:53:00,
2013-01-10 09:02:00,78.0,-99.9,30.16,ENE,77,23.0,29.0,-999,-99.99,,,-99.99,,2013-01-10 13:02:00,
2013-01-10 09:12:00,78.0,-99.9,30.17,ENE,73,19.0,26.0,-999,-99.99,,,-99.99,,2013-01-10 13:12:00,
2013-01-10 09:22:00,77.0,-99.9,30.17,ENE,74,23.0,28.0,-999,-99.99,,,-99.99,,2013-01-10 13:22:00,
2013-01-10 09:33:00,77.0,-99.9,30.17,ENE,67,17.0,23.0,-999,-99.99,,,-99.99,,2013-01-10 13:33:00,
2013-01-10 09:42:00,78.0,-99.9,30.17,ENE,68,17.0,20.0,-999,-99.99,,,-99.99,,2013-01-10 13:42:00,
2013-01-10 09:53:00,79.0,-99.9,30.16,ENE,74,23.0,28.0,-999,-99.99,,,-99.99,,2013-01-10 13:53:00,
2013-01-10 10:02:00,79.0,-99.9,30.16,East,80,24.0,30.0,-999,-99.99,,,-99.99,,2013-01-10 14:02:00,
2013-01-10 10:12:00,79.0,-99.9,30.16,ENE,73,21.0,28.0,-999,-99.99,,,-99.99,,2013-01-10 14:12:00,
2013-01-10 10:23:00,79.0,-99.9,30.16,ENE,66,15.0,24.0,-999,-99.99,,,-99.99,,2013-01-10 14:23:00,
2013-01-10 10:33:00,79.0,-99.9,30.16,ENE,75,19.0,22.0,-999,-99.99,,,-99.99,,2013-01-10 14:33:00,
2013-01-10 10:44:00,79.0,-99.9,30.16,ENE,75,19.0,29.0,-999,-99.99,,,-99.99,,2013-01-10 14:44:00,
2013-01-10 10:53:00,79.0,-99.9,30.16,ENE,70,20.0,25.0,-999,-99.99,,,-99.99,,2013-01-10 14:53:00,
2013-01-10 11:03:00,79.0,-99.9,30.15,ENE,75,19.0,26.0,-999,-99.99,,,-99.99,,2013-01-10 15:03:00,
2013-01-10 11:12:00,79.0,-99.9,30.15,ENE,75,19.0,26.0,-999,-99.99,,,-99.99,,2013-01-10 15:12:00,
2013-01-10 11:23:00,80.0,-99.9,30.15,ENE,76,21.0,26.0,-999,-99.99,,,-99.99,,2013-01-10 15:23:00,
2013-01-10 11:33:00,80.0,-99.9,30.15,East,79,17.0,26.0,-999,-99.99,,,-99.99,,2013-01-10 15:33:00,
2013-01-10 11:43:00,80.0,-99.9,30.14,ENE,76,20.0,26.0,-999,-99.99,,,-99.99,,2013-01-10 15:43:00,
2013-01-10 11:53:00,80.0,-99.9,30.14,ENE,76,21.0,24.0,-999,-99.99,,,-99.99,,2013-01-10 15:53:00,
2013-01-10 12:03:00,80.0,-99.9,30.14,ENE,74,16.0,23.0,-999,-99.99,,,-99.99,,2013-01-10 16:03:00,
2013-01-10 12:13:00,80.0,-99.9,30.14,ENE,75,21.0,24.0,-999,-99.99,,,-99.99,,2013-01-10 16:13:00,
2013-01-10 12:23:00,80.0,-99.9,30.13,ENE,76,17.0,22.0,-999,-99.99,,,-99.99,,2013-01-10 16:23:00,
2013-01-10 12:33:00,80.0,-99.9,30.13,ENE,74,18.0,23.0,-999,-99.99,,,-99.99,,2013-01-10 16:33:00,
2013-01-10 12:43:00,80.0,-99.9,30.13,ENE,71,20.0,24.0,-999,-99.99,,,-99.99,,2013-01-10 16:43:00,
2013-01-10 12:53:00,80.0,-99.9,30.12,ENE,74,17.0,22.0,-999,-99.99,,,-99.99,,2013-01-10 16:53:00,
2013-01-10 13:03:00,80.0,-99.9,30.12,ENE,71,18.0,24.0,-999,-99.99,,,-99.99,,2013-01-10 17:03:00,
2013-01-10 13:12:00,80.0,-99.9,30.12,East,79,17.0,24.0,-999,-99.99,,,-99.99,,2013-01-10 17:12:00,
2013-01-10 13:23:00,80.0,-99.9,30.11,ENE,72,17.0,22.0,-999,-99.99,,,-99.99,,2013-01-10 17:23:00,
2013-01-10 13:33:00,80.0,-99.9,30.11,ENE,72,18.0,22.0,-999,-99.99,,,-99.99,,2013-01-10 17:33:00,
2013-01-10 13:43:00,80.0,-99.9,30.10,ENE,68,19.0,24.0,-999,-99.99,,,-99.99,,2013-01-10 17:43:00,
2013-01-10 13:53:00,80.0,-99.9,30.10,ENE,78,17.0,23.0,-999,-99.99,,,-99.99,,2013-01-10 17:53:00,
2013-01-10 14:04:00,80.0,-99.9,30.10,ENE,73,18.0,23.0,-999,-99.99,,,-99.99,,2013-01-10 18:04:00,
2013-01-10 14:12:00,80.0,-99.9,30.09,ENE,74,19.0,22.0,-999,-99.99,,,-99.99,,2013-01-10 18:12:00,
2013-01-10 14:23:00,80.0,-99.9,30.09,ENE,72,18.0,23.0,-999,-99.99,,,-99.99,,2013-01-10 18:23:00,
2013-01-10 14:33:00,80.0,-99.9,30.09,ENE,70,15.0,21.0,-999,-99.99,,,-99.99,,2013-01-10 18:33:00,
2013-01-10 14:44:00,80.0,-99.9,30.09,ENE,64,15.0,19.0,-999,-99.99,,,-99.99,,2013-01-10 18:44:00,
2013-01-10 14:53:00,80.0,-99.9,30.08,ENE,72,17.0,20.0,-999,-99.99,,,-99.99,,2013-01-10 18:53:00,
2013-01-10 15:03:00,78.0,-99.9,30.08,East,101,24.0,27.0,-999,-99.99,,,-99.99,,2013-01-10 19:03:00,
2013-01-10 15:13:00,77.0,-99.9,30.09,ESE,105,19.0,26.0,-999,-99.99,,,-99.99,,2013-01-10 19:13:00,
2013-01-10 15:23:00,77.0,-99.9,30.08,ENE,74,13.0,18.0,-999,-99.99,,,-99.99,,2013-01-10 19:23:00,
2013-01-10 15:33:00,78.0,-99.9,30.08,East,85,19.0,27.0,-999,-99.99,,,-99.99,,2013-01-10 19:33:00,
2013-01-10 15:44:00,76.0,-99.9,30.09,ESE,104,15.0,19.0,-999,-99.99,,,-99.99,,2013-01-10 19:44:00,
2013-01-10 15:53:00,76.0,-99.9,30.09,SE,139,9.0,13.0,-999,-99.99,,,-99.99,,2013-01-10 19:53:00,
2013-01-10 16:03:00,75.0,-99.9,30.09,SE,135,10.0,11.0,-999,-99.99,,,-99.99,,2013-01-10 20:03:00,
2013-01-10 16:13:00,75.0,-99.9,30.09,SE,128,8.0,10.0,-999,-99.99,,,-99.99,,2013-01-10 20:13:00,
2013-01-10 16:24:00,75.0,-99.9,30.09,ESE,109,10.0,12.0,-999,-99.99,,,-99.99,,2013-01-10 20:24:00,
2013-01-10 16:33:00,75.0,-99.9,30.09,ESE,115,8.0,11.0,-999,-99.99,,,-99.99,,2013-01-10 20:33:00,
2013-01-10 16:43:00,75.0,-99.9,30.09,SE,137,7.0,10.0,-999,-99.99,,,-99.99,,2013-01-10 20:43:00,
2013-01-10 16:53:00,75.0,-99.9,30.09,ESE,122,5.0,7.0,-999,-99.99,,,-99.99,,2013-01-10 20:53:00,
2013-01-10 17:04:00,75.0,-99.9,30.09,ENE,78,4.0,9.0,-999,-99.99,,,-99.99,,2013-01-10 21:04:00,
2013-01-10 17:13:00,76.0,-99.9,30.09,East,81,10.0,14.0,-999,-99.99,,,-99.99,,2013-01-10 21:13:00,
2013-01-10 17:23:00,78.0,-99.9,30.09,ENE,68,17.0,28.0,-999,-99.99,,,-99.99,,2013-01-10 21:23:00,
2013-01-10 17:33:00,79.0,-99.9,30.09,ENE,68,18.0,23.0,-999,-99.99,,,-99.99,,2013-01-10 21:33:00,
2013-01-10 17:44:00,79.0,-99.9,30.09,ENE,76,20.0,25.0,-999,-99.99,,,-99.99,,2013-01-10 21:44:00,
2013-01-10 17:53:00,79.0,-99.9,30.09,ENE,65,15.0,20.0,-999,-99.99,,,-99.99,,2013-01-10 21:53:00,
2013-01-10 18:04:00,79.0,-99.9,30.09,ENE,61,13.0,21.0,-999,-99.99,,,-99.99,,2013-01-10 22:04:00,
2013-01-10 18:13:00,78.0,-99.9,30.09,ENE,57,15.0,23.0,-999,-99.99,,,-99.99,,2013-01-10 22:13:00,
2013-01-10 18:27:00,79.0,-99.9,30.09,ENE,65,17.0,24.0,-999,-99.99,,,-99.99,,2013-01-10 22:27:00,
2013-01-10 18:34:00,79.0,-99.9,30.09,ENE,62,15.0,19.0,-999,-99.99,,,-99.99,,2013-01-10 22:34:00,
2013-01-10 18:44:00,79.0,-99.9,30.09,ENE,68,16.0,21.0,-999,-99.99,,,-99.99,,2013-01-10 22:44:00,
2013-01-10 19:03:00,78.0,-99.9,30.09,ENE,64,16.0,25.0,-999,-99.99,,,-99.99,,2013-01-10 23:03:00,
2013-01-10 19:13:00,79.0,-99.9,30.09,ENE,65,17.0,24.0,-999,-99.99,,,-99.99,,2013-01-10 23:13:00,
2013-01-10 19:23:00,78.0,-99.9,30.10,ENE,63,14.0,23.0,-999,-99.99,,,-99.99,,2013-01-10 23:23:00,
2013-01-10 19:33:00,79.0,-99.9,30.10,ENE,72,20.0,25.0,-999,-99.99,,,-99.99,,2013-01-10 23:33:00,
2013-01-10 19:43:00,78.0,-99.9,30.10,ENE,60,16.0,23.0,-999,-99.99,,,-99.99,,2013-01-10 23:43:00,
2013-01-10 19:53:00,79.0,-99.9,30.11,ENE,64,15.0,22.0,-999,-99.99,,,-99.99,,2013-01-10 23:53:00,
2013-01-10 20:03:00,79.0,-99.9,30.11,ENE,64,17.0,21.0,-999,-99.99,,,-99.99,,2013-01-11 00:03:00,
2013-01-10 20:13:00,79.0,-99.9,30.11,ENE,66,17.0,22.0,-999,-99.99,,,-99.99,,2013-01-11 00:13:00,
2013-01-10 20:23:00,79.0,-99.9,30.11,ENE,60,13.0,19.0,-999,-99.99,,,-99.99,,2013-01-11 00:23:00,
2013-01-10 20:33:00,78.0,-99.9,30.11,NE,52,10.0,22.0,-999,-99.99,,,-99.99,,2013-01-11 00:33:00,
2013-01-10 20:43:00,79.0,-99.9,30.11,NE,41,18.0,23.0,-999,-99.99,,,-99.99,,2013-01-11 00:43:00,
2013-01-10 20:53:00,79.0,-99.9,30.11,NE,44,16.0,23.0,-999,-99.99,,,-99.99,,2013-01-11 00:53:00,
2013-01-10 21:03:00,79.0,-99.9,30.11,ENE,62,15.0,20.0,-999,-99.99,,,-99.99,,2013-01-11 01:03:00,
2013-01-10 21:13:00,79.0,-99.9,30.11,ENE,68,16.0,22.0,-999,-99.99,,,-99.99,,2013-01-11 01:13:00,
2013-01-10 21:24:00,78.0,-99.9,30.11,ENE,60,13.0,20.0,-999,-99.99,,,-99.99,,2013-01-11 01:24:00,
2013-01-10 21:34:00,78.0,-99.9,30.11,ENE,62,17.0,25.0,-999,-99.99,,,-99.99,,2013-01-11 01:34:00,
2013-01-10 21:43:00,79.0,-99.9,30.12,ENE,63,12.0,21.0,-999,-99.99,,,-99.99,,2013-01-11 01:43:00,
2013-01-10 21:53:00,79.0,-99.9,30.11,ENE,71,18.0,24.0,-999,-99.99,,,-99.99,,2013-01-11 01:53:00,
2013-01-10 22:03:00,78.0,-99.9,30.11,ENE,66,16.0,24.0,-999,-99.99,,,-99.99,,2013-01-11 02:03:00,
2013-01-10 22:13:00,78.0,-99.9,30.11,ENE,60,12.0,22.0,-999,-99.99,,,-99.99,,2013-01-11 02:13:00,
2013-01-10 22:24:00,79.0,-99.9,30.11,ENE,63,14.0,22.0,-999,-99.99,,,-99.99,,2013-01-11 02:24:00,
2013-01-10 22:33:00,78.0,-99.9,30.11,ENE,68,14.0,21.0,-999,-99.99,,,-99.99,,2013-01-11 02:33:00,
2013-01-10 22:44:00,78.0,-99.9,30.11,ENE,63,12.0,19.0,-999,-99.99,,,-99.99,,2013-01-11 02:44:00,
2013-01-10 22:54:00,78.0,-99.9,30.11,ENE,59,15.0,22.0,-999,-99.99,,,-99.99,,2013-01-11 02:54:00,
2013-01-10 23:03:00,78.0,-99.9,30.11,ENE,64,16.0,21.0,-999,-99.99,,,-99.99,,2013-01-11 03:03:00,
2013-01-10 23:13:00,78.0,-99.9,30.11,ENE,57,16.0,24.0,-999,-99.99,,,-99.99,,2013-01-11 03:13:00,
2013-01-10 23:23:00,78.0,-99.9,30.11,ENE,62,14.0,21.0,-999,-99.99,,,-99.99,,2013-01-11 03:23:00,
2013-01-10 23:34:00,78.0,-99.9,30.11,ENE,64,17.0,23.0,-999,-99.99,,,-99.99,,2013-01-11 03:34:00,
2013-01-10 23:43:00,78.0,-99.9,30.11,ENE,63,16.0,21.0,-999,-99.99,,,-99.99,,2013-01-11 03:43:00,
2013-01-10 23:53:00,78.0,-99.9,30.11,ENE,64,18.0,23.0,-999,-99.99,,,-99.99,,2013-01-11 03:53:00,